Location: Brienzwiler
(46.7508°N, 8.1014°E)
Time: 17:07:59
(UTC+00:00)

COSMOS 2428 - Pass Details

Date: 05 July 2020
Orbit: 844 x 859 km, 70.9° (Epoch: 11 August)

Event Time Altitude Azimuth Distance (km) Brightness Sun altitude
Exits shadow 20:15:32 - 164° (SSE) 2,891 4.9 -7.6°
Reaches altitude 10° 20:16:52 10° 157° (SSE) 2,458 4.5 -7.8°
Maximum altitude 20:21:27 26° 103° (ESE) 1,601 3.7 -8.3°
Drops below altitude 10° 20:26:03 10° 48° (NE) 2,474 5.1 -8.8°
Sets 20:28:52 0° 37° (NE) 3,416 6.0 -9.2°
